Storm Lake, IA

10:03 PM CST on February 22, 2017 (GMT -0600)
Storm Lake Municipal

Weather History for KSLB - September, 2011

Change the Weather History Date:

Friday, September 2, 2011

  Actual Average Record
Temperature  
Mean Temperature 74 °F -  
Max Temperature 81 °F 79 °F 98 °F (2000)
Min Temperature 67 °F 58 °F 50 °F (2013)
Cooling Degree Days 9    
Growing Degree Days 24 (Base 50)    
Moisture  
Dew Point 68 °F    
Average Humidity 81    
Maximum Humidity 91    
Minimum Humidity 59    
Precipitation  
Precipitation 0.08 in - - ()
Sea Level Pressure  
Sea Level Pressure 29.90 in    
Wind  
Wind Speed 4 mph (ESE)    
Max Wind Speed 23 mph    
Max Gust Speed 31 mph    
Visibility 9 miles    
Events      
Averages and records for this station are not official NWS values.
T = Trace of Precipitation, MM = Missing Value Source: NWS Daily Summary

Daily Weather History Graph

Daily Weather History Graph

Search for Another Location

Airport or City:

Trip Planner

Search our weather history database for the weather conditions in past years. The results will help you decide how hot, cold, wet, or windy it might be!

Date:

Astronomy

Sep. 02, 2011 Rise Set
Actual Time 6:46 AM CDT 7:53 PM CDT
Civil Twilight 6:17 AM CDT 8:22 PM CDT
Nautical Twilight 5:43 AM CDT 8:57 PM CDT
Astronomical Twilight 5:06 AM CDT 9:33 PM CDT
Moon 12:29 PM CDT (9/2) 10:19 PM CDT (9/2)
Length of Visible Light 14h 05m
Length of Day
13h 07m
Waxing Crescent, 28% of the Moon is Illuminated
Sep 2
Waxing Crescent
Sep 4
First Quarter
Sep 12
Full
Sep 20
Last Quarter
Sep 27
New

Hourly Weather History & Observations

Time (CDT) Temp. Heat Index Dew Point Humidity Pressure Visibility Wind Dir Wind Speed Gust Speed Precip Events Conditions
12:15 AM 72.1 °F - 67.8 °F 86% 29.80 in 10.0 mi Calm Calm - N/A   Clear
12:35 AM 73.4 °F - 68.0 °F 83% 29.80 in 10.0 mi Calm Calm - N/A   Clear
12:55 AM 73.4 °F - 67.8 °F 83% 29.80 in 10.0 mi Calm Calm - N/A   Clear
1:15 AM 72.0 °F - 67.3 °F 85% 29.80 in 10.0 mi Calm Calm - N/A   Clear
1:35 AM 71.8 °F - 67.8 °F 87% 29.80 in 7.0 mi Calm Calm - N/A   Clear
1:55 AM 70.7 °F - 67.5 °F 89% 29.80 in 7.0 mi Calm Calm - N/A   Clear
2:15 AM 70.9 °F - 67.8 °F 90% 29.79 in 7.0 mi Calm Calm - N/A   Clear
2:35 AM 71.8 °F - 68.7 °F 90% 29.79 in 5.0 mi Calm Calm - N/A   Clear
2:55 AM 71.8 °F - 68.7 °F 90% 29.78 in 7.0 mi Calm Calm - N/A   Clear
3:15 AM 73.2 °F - 70.0 °F 90% 29.83 in 7.0 mi WNW 3.5 mph - N/A   Clear
3:35 AM 74.3 °F - 70.0 °F 86% 29.84 in 7.0 mi WNW 12.7 mph 17.3 mph N/A   Clear
4:15 AM 72.0 °F - 66.2 °F 82% 29.86 in 10.0 mi North 23.0 mph 31.1 mph N/A   Scattered Clouds
4:35 AM 70.9 °F - 63.9 °F 78% 29.85 in 10.0 mi North 13.8 mph 21.9 mph N/A   Clear
4:55 AM 70.5 °F - 64.6 °F 81% 29.84 in 10.0 mi NNE 9.2 mph - N/A   Clear
5:15 AM 70.2 °F - 64.8 °F 83% 29.84 in 10.0 mi NNE 12.7 mph - N/A   Clear
5:35 AM 69.4 °F - 64.8 °F 85% 29.85 in 10.0 mi NE 6.9 mph - N/A   Clear
5:55 AM 68.9 °F - 64.8 °F 87% 29.87 in 10.0 mi ENE 4.6 mph - N/A   Clear
6:15 AM 68.0 °F - 64.4 °F 88% 29.88 in 10.0 mi Calm Calm - N/A   Clear
6:35 AM 67.1 °F - 63.9 °F 89% 29.92 in 10.0 mi South 5.8 mph - N/A   Scattered Clouds
6:55 AM 67.8 °F - 64.9 °F 90% 29.93 in 10.0 mi SE 4.6 mph - N/A   Mostly Cloudy
7:15 AM 68.7 °F - 65.7 °F 90% 29.97 in 10.0 mi NW 16.1 mph 19.6 mph N/A   Overcast
7:35 AM 69.1 °F - 66.2 °F 91% 29.97 in 7.0 mi NW 9.2 mph - 0.08 in   Overcast
7:55 AM 69.3 °F - 66.2 °F 90% 29.99 in 10.0 mi SSE 16.1 mph 21.9 mph 0.08 in   Overcast
8:15 AM 69.3 °F - 66.2 °F 90% 29.91 in 7.0 mi North 10.4 mph - N/A   Scattered Clouds
8:35 AM 69.8 °F - 66.9 °F 91% 29.94 in 10.0 mi NE 4.6 mph - N/A   Scattered Clouds
9:35 AM 71.6 °F - 68.4 °F 89% 29.93 in 7.0 mi East 5.8 mph - N/A   Clear
9:55 AM 72.5 °F - 68.4 °F 87% 29.95 in 10.0 mi ESE 4.6 mph - N/A   Clear
9:58 AM 73.4 °F - 69.8 °F 88% 29.95 in 10.0 mi Calm Calm - N/A   Clear
10:15 AM 73.4 °F - 68.4 °F 84% 29.94 in 10.0 mi Calm Calm - N/A   Clear
10:35 AM 73.9 °F - 68.2 °F 82% 29.95 in 10.0 mi SE 4.6 mph - N/A   Clear
10:55 AM 73.9 °F - 68.2 °F 82% 29.96 in 10.0 mi SE 4.6 mph - N/A   Clear
11:15 AM 75.4 °F - 67.6 °F 77% 29.95 in 10.0 mi ESE 5.8 mph - N/A   Clear
11:35 AM 76.6 °F - 67.1 °F 72% 29.96 in 10.0 mi SE 4.6 mph - N/A   Clear
11:55 AM 77.5 °F - 66.6 °F 69% 29.95 in 10.0 mi East 4.6 mph - N/A   Clear
12:15 PM 78.1 °F - 65.8 °F 66% 29.96 in 10.0 mi SE 6.9 mph - N/A   Clear
12:35 PM 79.5 °F - 66.7 °F 65% 29.94 in 10.0 mi SSE 10.4 mph - N/A   Clear
12:55 PM 80.2 °F 82.6 °F 66.9 °F 64% 29.93 in 10.0 mi SSE 11.5 mph - N/A   Clear
1:15 PM 81.1 °F 83.5 °F 67.1 °F 62% 29.93 in 10.0 mi SE 8.1 mph - N/A   Clear
1:35 PM 81.5 °F 83.9 °F 66.9 °F 61% 29.93 in 10.0 mi South 6.9 mph - N/A   Scattered Clouds
1:55 PM 81.1 °F 84.0 °F 68.4 °F 65% 29.92 in 10.0 mi SSE 12.7 mph - N/A   Scattered Clouds
2:15 PM 81.9 °F 84.1 °F 66.2 °F 59% 29.91 in 10.0 mi SSE 9.2 mph - N/A   Scattered Clouds
2:35 PM 81.3 °F 83.3 °F 65.7 °F 59% 29.92 in 10.0 mi SSE 6.9 mph - N/A   Scattered Clouds
2:55 PM 79.9 °F - 67.5 °F 66% 29.92 in 10.0 mi South 4.6 mph - N/A   Scattered Clouds
3:15 PM 79.3 °F - 68.7 °F 70% 29.92 in 10.0 mi SSW 4.6 mph - N/A   Clear
3:35 PM 79.0 °F - 69.1 °F 72% 29.92 in 10.0 mi Calm Calm - N/A   Scattered Clouds
3:55 PM 77.9 °F - 69.8 °F 76% 29.93 in 10.0 mi South 3.5 mph - N/A   Scattered Clouds
4:15 PM 77.2 °F - 70.0 °F 78% 29.91 in 10.0 mi SSE 6.9 mph - N/A   Scattered Clouds
4:35 PM 77.4 °F - 70.3 °F 79% 29.93 in 10.0 mi SW 3.5 mph - N/A   Clear
4:55 PM 77.4 °F - 70.7 °F 80% 29.92 in 10.0 mi Calm Calm - N/A   Scattered Clouds
5:15 PM 77.5 °F - 71.1 °F 80% 29.91 in 10.0 mi SSE 3.5 mph - N/A   Clear
5:35 PM 77.2 °F - 71.4 °F 82% 29.93 in 10.0 mi NW 4.6 mph - N/A   Scattered Clouds
6:15 PM 74.1 °F - 71.1 °F 90% 29.93 in 3.0 mi NNW 6.9 mph - N/A   Scattered Clouds
6:35 PM 73.6 °F - 70.7 °F 91% 29.94 in 2.5 mi NNW 9.2 mph - N/A   Overcast
6:55 PM 72.7 °F - 69.8 °F 91% 29.96 in 3.0 mi North 4.6 mph - N/A   Mostly Cloudy
7:15 PM 72.0 °F - 69.3 °F 91% 29.96 in 2.0 mi Calm Calm - N/A   Overcast
7:35 PM 72.0 °F - 69.3 °F 91% 29.94 in 1.2 mi East 6.9 mph - 0.04 in   Overcast
7:55 PM 71.8 °F - 69.4 °F 92% 29.88 in 4.0 mi ESE 12.7 mph - 0.08 in   Overcast
8:15 PM 72.3 °F - 69.6 °F 91% 29.88 in 7.0 mi ESE 5.8 mph - N/A   Scattered Clouds
8:35 PM 72.3 °F - 69.1 °F 89% 29.87 in 7.0 mi ESE 6.9 mph - N/A   Clear
9:15 PM 71.8 °F - 68.5 °F 89% 29.89 in 5.0 mi NNE 4.6 mph - N/A   Scattered Clouds
9:35 PM 71.1 °F - 68.4 °F 91% 29.90 in 4.0 mi North 5.8 mph - N/A   Scattered Clouds
9:55 PM 70.9 °F - 68.4 °F 92% 29.91 in 4.0 mi North 6.9 mph - N/A   Scattered Clouds
10:15 PM 70.7 °F - 68.2 °F 92% 29.92 in 4.0 mi North 6.9 mph - N/A   Mostly Cloudy
11:15 PM 69.8 °F - 67.3 °F 92% 29.91 in 5.0 mi NE 8.1 mph - N/A   Clear
11:35 PM 69.8 °F - 67.3 °F 92% 29.91 in 5.0 mi ENE 9.2 mph - N/A   Clear
11:55 PM 69.4 °F - 66.9 °F 92% 29.93 in 5.0 mi East 5.8 mph - N/A   Clear